Simultaneous Nadir Overpasses (SNOs) Predictions

Prediction of SNOs between GOES-15 and NPP Satellite Orbit:

Table of predicted SNOs for the next 14.0 days since TLE Epoch: 12/5/2025
Index Date Time (GOES-15) GOES-15 Lat,Lon NPP Lat,Lon Distance(km) Time Diff (sec)
1 12/05/2025 21:23:42 0.18, 61.45 0.17, 61.41 4.09 14
2 12/08/2025 09:28:32 -0.23, 61.48 -0.44, 60.65 95.63 80
3 12/09/2025 09:07:11 -0.17, 61.47 0.69, 65.15 420.22 80
4 12/10/2025 21:31:40 0.27, 61.40 0.63, 59.91 170.78 80
5 12/11/2025 21:10:18 0.21, 61.40 -0.45, 64.42 344.13 80
6 12/13/2025 09:34:56 -0.31, 61.45 -0.83, 59.13 263.81 80
7 12/14/2025 09:13:35 -0.26, 61.44 0.26, 63.64 252.00 80
8 12/15/2025 21:38:03 0.36, 61.36 1.05, 58.40 337.81 80
9 12/16/2025 21:16:42 0.31, 61.36 -0.04, 62.91 176.72 80
10 12/18/2025 09:41:19 -0.41, 61.43 -1.28, 57.63 433.64 80
